�N����,����,�~����,�C��,���x,�C��,����,���ϕ���,�ő�u�ԕ���,�ő厞����,���˗�,�I�_���x,�n�����x,�ő啗���N��,DTYPE
"18/02/12","00:10",0.0,-1.2,73.0,1009.3,296.1,1.5,2.4,282.0,0.00,-5.4,3.2,"00:05:44",1
"18/02/12","00:20",0.0,-1.2,74.0,1008.8,291.4,1.6,3.1,337.1,0.00,-5.2,3.2,"00:14:00",1
"18/02/12","00:30",0.0,-1.1,72.8,1008.8,287.2,2.0,4.3,320.3,0.00,-5.3,3.0,"00:27:12",1
"18/02/12","00:40",0.0,-1.2,71.6,1008.3,287.1,1.7,3.1,253.4,0.00,-5.6,3.0,"00:32:56",1
"18/02/12","00:50",0.0,-1.4,73.5,1008.8,301.7,1.5,2.9,327.1,0.00,-5.5,3.0,"00:42:08",1
"18/02/12","01:00",0.0,-1.5,73.9,1008.6,312.6,1.7,2.9,318.6,0.00,-5.5,3.0,"00:55:20",1
"18/02/12","01:10",0.0,-1.6,74.7,1008.6,299.9,1.5,2.6,340.4,0.00,-5.5,3.0,"01:01:04",1
"18/02/12","01:20",0.0,-1.5,75.0,1008.3,301.6,2.0,4.0,334.0,0.00,-5.3,3.0,"01:16:16",1
"18/02/12","01:30",0.0,-1.5,73.8,1008.1,284.8,1.5,3.2,310.8,0.00,-5.5,2.9,"01:21:44",1
"18/02/12","01:40",0.0,-1.5,73.5,1008.3,292.2,1.7,3.3,312.4,0.00,-5.6,2.9,"01:36:32",1
"18/02/12","01:50",0.0,-1.6,73.4,1008.3,282.4,1.5,2.2,308.0,0.00,-5.7,2.8,"01:41:52",1
"18/02/12","02:00",0.0,-1.5,73.1,1008.1,274.5,1.7,2.9,300.3,0.00,-5.6,2.9,"01:53:12",1
"18/02/12","02:10",0.0,-1.6,72.5,1007.8,303.5,1.8,3.7,261.0,0.00,-5.8,2.9,"02:04:24",1
"18/02/12","02:20",0.0,-2.0,74.8,1008.3,311.8,1.7,2.1,321.8,0.00,-5.8,2.7,"02:16:40",1
"18/02/12","02:30",0.0,-2.1,76.3,1008.3,301.6,1.8,2.7,318.2,0.00,-5.7,2.9,"02:21:28",1
"18/02/12","02:40",0.0,-1.8,76.3,1007.8,283.4,1.8,3.1,304.3,0.00,-5.4,2.6,"02:36:16",1
"18/02/12","02:50",0.0,-1.9,75.2,1007.8,302.3,1.7,3.1,336.8,0.00,-5.7,2.6,"02:42:48",1
"18/02/12","03:00",0.0,-1.9,75.5,1007.6,291.6,1.6,2.6,316.9,0.00,-5.6,2.7,"02:55:20",1
"18/02/12","03:10",0.0,-2.0,75.2,1007.4,298.7,1.7,2.6,325.3,0.00,-5.8,2.7,"03:03:52",1
"18/02/12","03:20",0.0,-1.9,76.2,1007.4,290.1,1.8,2.8,318.7,0.00,-5.5,2.5,"03:18:48",1
"18/02/12","03:30",0.0,-1.9,75.4,1007.8,294.7,1.7,2.4,325.5,0.00,-5.6,2.7,"03:29:04",1
"18/02/12","03:40",0.0,-2.1,76.3,1007.6,307.5,2.0,2.9,308.6,0.00,-5.7,2.6,"03:33:36",1
"18/02/12","03:50",0.0,-2.2,77.0,1007.6,317.6,2.1,2.7,325.1,0.00,-5.6,2.6,"03:49:04",1
"18/02/12","04:00",0.0,-2.4,77.9,1007.1,317.3,2.1,2.9,333.1,0.00,-5.7,2.4,"03:50:02",1
"18/02/12","04:10",0.0,-2.5,79.4,1007.1,310.3,2.2,2.9,335.4,0.00,-5.5,2.5,"04:01:20",1
"18/02/12","04:20",0.0,-2.4,80.0,1007.1,314.8,2.2,3.1,324.7,0.00,-5.3,2.6,"04:15:36",1
"18/02/12","04:30",0.0,-2.4,80.3,1007.1,304.2,2.0,3.2,308.6,0.00,-5.3,2.5,"04:26:16",1
"18/02/12","04:40",0.0,-2.1,80.3,1007.1,308.7,2.0,2.7,320.1,0.00,-5.0,2.6,"04:31:52",1
"18/02/12","04:50",0.0,-1.8,79.9,1007.4,308.0,2.1,3.7,326.5,0.00,-4.8,2.5,"04:45:36",1
"18/02/12","05:00",0.0,-1.2,79.1,1007.6,298.5,2.1,3.9,318.9,0.00,-4.3,2.4,"04:59:20",1
"18/02/12","05:10",0.0,-1.0,77.9,1007.8,319.2,2.0,4.0,334.5,0.00,-4.3,2.5,"05:06:40",1
"18/02/12","05:20",0.0,-0.9,77.0,1007.6,305.0,1.5,4.0,336.3,0.00,-4.4,2.3,"05:14:58",1
"18/02/12","05:30",0.0,-0.7,76.5,1008.1,278.3,1.6,3.6,322.6,0.00,-4.3,2.3,"05:24:52",1
"18/02/12","05:40",0.0,-0.7,75.4,1008.3,280.5,1.8,3.3,324.8,0.00,-4.5,2.3,"05:39:12",1
"18/02/12","05:50",0.0,-0.6,75.4,1008.6,271.4,2.1,5.8,231.8,0.00,-4.4,2.1,"05:42:36",1
"18/02/12","06:00",0.0,-0.5,75.5,1008.6,278.7,1.8,3.1,289.1,0.00,-4.3,2.3,"05:52:36",1
"18/02/12","06:10",0.0,-0.6,75.6,1008.1,284.9,2.0,4.0,337.9,0.00,-4.3,2.4,"06:02:50",1
"18/02/12","06:20",0.0,-0.5,75.6,1008.3,277.0,2.3,3.7,310.1,0.00,-4.2,2.5,"06:10:02",1
"18/02/12","06:30",0.0,-0.8,76.0,1008.3,291.7,1.7,4.4,340.9,0.00,-4.5,2.3,"06:28:14",1
"18/02/12","06:40",0.0,-0.7,76.8,1008.6,276.1,2.0,3.5,320.4,0.00,-4.2,2.6,"06:37:22",1
"18/02/12","06:50",0.0,-0.7,76.6,1008.6,287.0,2.1,3.6,287.2,0.00,-4.3,2.3,"06:43:06",1
"18/02/12","07:00",0.0,-0.7,77.1,1008.8,304.7,2.3,4.2,318.9,0.00,-4.2,2.4,"06:59:46",1
"18/02/12","07:10",0.0,-0.8,77.8,1008.6,313.2,2.7,4.9,336.1,0.00,-4.1,2.3,"07:01:10",1
"18/02/12","07:20",0.0,-0.8,78.4,1008.8,319.4,3.0,4.7,338.3,0.00,-4.0,2.1,"07:13:12",1
"18/02/12","07:30",0.0,-0.6,78.6,1009.3,308.8,2.8,5.5,332.5,0.00,-3.8,2.4,"07:25:24",1
"18/02/12","07:40",0.0,-0.4,78.2,1009.0,290.6,2.5,4.3,320.5,0.01,-3.7,2.3,"07:38:00",1
"18/02/12","07:50",0.0,-0.1,76.7,1009.5,299.2,3.0,5.5,326.2,0.01,-3.7,2.3,"07:48:34",1
"18/02/12","08:00",0.0,0.0,76.6,1009.7,297.1,3.6,5.5,303.2,0.03,-3.6,2.4,"07:54:14",1
"18/02/12","08:10",0.0,0.2,75.7,1010.0,300.7,3.6,6.3,320.8,0.04,-3.5,2.2,"08:07:42",1
"18/02/12","08:20",0.0,0.4,75.1,1010.0,298.2,3.4,4.9,297.9,0.06,-3.5,2.5,"08:17:56",1
"18/02/12","08:30",0.0,0.5,73.8,1010.0,296.6,4.1,6.8,324.9,0.08,-3.6,2.4,"08:21:06",1
"18/02/12","08:40",0.0,0.8,72.4,1010.0,291.0,3.7,6.2,267.5,0.11,-3.6,2.6,"08:32:44",1
"18/02/12","08:50",0.0,1.0,70.4,1010.4,289.1,3.9,8.1,252.7,0.13,-3.7,2.4,"08:40:16",1
"18/02/12","09:00",0.0,1.3,69.2,1010.4,285.5,4.0,8.9,320.8,0.16,-3.7,2.6,"08:57:22",1
"18/02/12","09:10",0.0,1.6,67.3,1010.7,290.1,3.6,6.7,320.4,0.18,-3.8,2.5,"09:06:26",1
"18/02/12","09:20",0.0,1.7,64.6,1010.7,288.2,4.0,5.5,316.6,0.21,-4.2,2.6,"09:15:28",1
"18/02/12","09:30",0.0,2.0,63.1,1010.4,291.6,4.4,8.7,302.4,0.24,-4.2,2.6,"09:21:46",1
"18/02/12","09:40",0.0,2.2,63.4,1010.7,291.8,3.9,5.6,331.4,0.26,-4.0,2.9,"09:30:02",1
"18/02/12","09:50",0.0,2.4,62.1,1010.4,301.0,4.7,8.2,305.7,0.29,-4.1,2.8,"09:42:26",1
"18/02/12","10:00",0.0,2.6,60.1,1010.7,291.4,4.7,6.6,317.4,0.31,-4.3,2.8,"09:57:22",1
"18/02/12","10:10",0.0,2.7,59.1,1010.9,286.8,4.2,7.3,320.1,0.33,-4.4,3.0,"10:07:58",1
"18/02/12","10:20",0.0,3.2,58.2,1010.9,283.8,3.0,5.9,321.1,0.35,-4.2,3.2,"10:10:44",1
"18/02/12","10:30",0.0,3.6,54.3,1010.9,277.2,3.2,6.4,293.5,0.37,-4.7,3.4,"10:28:10",1
"18/02/12","10:40",0.0,3.7,53.2,1010.9,284.4,3.6,8.8,304.8,0.41,-4.9,3.6,"10:39:28",1
"18/02/12","10:50",0.0,3.9,52.6,1010.7,296.1,4.0,8.3,303.9,0.42,-4.9,3.8,"10:40:30",1
"18/02/12","11:00",0.0,4.3,52.6,1010.7,286.3,3.0,5.8,310.5,0.41,-4.5,4.0,"10:54:08",1
"18/02/12","11:10",0.0,4.3,49.7,1010.4,285.5,3.0,6.5,324.2,0.40,-5.2,4.2,"11:03:44",1
"18/02/12","11:20",0.0,4.6,48.0,1010.7,279.1,3.5,7.2,293.1,0.47,-5.4,4.3,"11:10:38",1
"18/02/12","11:30",0.0,4.3,48.1,1010.7,292.1,3.6,7.4,303.6,0.40,-5.7,4.6,"11:25:48",1
"18/02/12","11:40",0.0,4.7,48.6,1010.2,279.7,3.7,10.6,332.5,0.51,-5.2,4.8,"11:31:28",1
"18/02/12","11:50",0.0,4.9,46.3,1010.4,283.8,3.4,7.1,305.8,0.51,-5.6,5.1,"11:43:44",1
"18/02/12","12:00",0.0,5.2,46.6,1010.4,285.9,3.5,7.7,343.8,0.51,-5.3,5.2,"11:52:02",1
"18/02/12","12:10",0.0,5.1,46.8,1010.2,269.8,3.0,5.4,251.1,0.45,-5.3,5.2,"12:04:46",1
"18/02/12","12:20",0.0,4.8,45.3,1010.2,299.6,4.2,9.6,343.2,0.38,-6.0,5.5,"12:12:26",1
"18/02/12","12:30",0.0,4.3,45.7,1009.5,291.4,3.4,7.4,335.8,0.35,-6.3,5.7,"12:26:52",1
"18/02/12","12:40",0.0,4.3,46.7,1009.7,286.4,2.5,6.0,309.4,0.21,-6.1,5.7,"12:39:24",1
"18/02/12","12:50",0.0,4.7,47.0,1009.5,301.7,3.9,6.7,304.4,0.25,-5.6,5.9,"12:42:44",1
"18/02/12","13:00",0.0,4.8,46.5,1009.0,281.2,2.8,8.2,317.1,0.21,-5.7,5.9,"12:58:34",1
"18/02/12","13:10",0.0,4.4,46.2,1009.0,270.2,3.4,6.3,311.5,0.28,-6.1,5.7,"13:07:34",1
"18/02/12","13:20",0.0,4.5,46.6,1009.0,280.1,2.6,5.0,303.9,0.22,-5.9,5.8,"13:16:54",1
"18/02/12","13:30",0.0,5.2,44.6,1008.3,297.0,3.7,8.1,318.6,0.36,-5.8,6.2,"13:23:48",1
"18/02/12","13:40",0.0,4.8,46.9,1008.3,283.7,3.9,7.2,328.8,0.21,-5.5,6.0,"13:30:24",1
"18/02/12","13:50",0.0,4.8,43.7,1008.1,261.6,3.6,8.6,331.4,0.27,-6.5,6.1,"13:49:50",1
"18/02/12","14:00",0.0,5.2,46.1,1008.1,286.4,4.1,7.4,343.0,0.23,-5.4,5.8,"13:50:38",1
"18/02/12","14:10",0.0,6.3,42.9,1008.3,274.2,3.0,5.7,300.6,0.46,-5.3,6.2,"14:06:52",1
"18/02/12","14:20",0.0,5.3,43.4,1008.3,287.7,3.7,6.4,217.6,0.44,-6.1,6.0,"14:18:12",1
"18/02/12","14:30",0.0,6.1,46.6,1008.6,302.3,4.2,8.9,337.7,0.39,-4.4,6.2,"14:26:14",1
"18/02/12","14:40",0.0,5.8,43.9,1008.3,283.9,3.5,7.9,346.2,0.39,-5.5,6.5,"14:31:30",1
"18/02/12","14:50",0.0,5.2,45.3,1008.3,266.3,3.7,7.0,336.9,0.24,-5.6,6.4,"14:47:12",1
"18/02/12","15:00",0.0,4.5,48.2,1008.3,278.9,3.5,7.0,324.2,0.06,-5.5,6.6,"14:55:14",1
"18/02/12","15:10",0.0,3.9,50.9,1008.1,289.2,3.0,5.7,321.1,0.04,-5.3,6.3,"15:03:32",1
"18/02/12","15:20",0.0,3.8,52.4,1008.1,294.7,2.6,5.9,323.7,0.03,-5.0,6.3,"15:11:36",1
"18/02/12","15:30",0.0,3.8,51.1,1007.8,281.7,2.5,5.7,295.7,0.03,-5.3,6.1,"15:29:58",1
"18/02/12","15:40",0.0,3.7,51.7,1007.8,279.3,3.1,5.5,290.1,0.02,-5.3,6.0,"15:31:30",1
"18/02/12","15:50",0.0,4.2,52.0,1007.6,288.9,2.6,5.5,321.2,0.07,-4.7,6.1,"15:42:16",1
"18/02/12","16:00",0.0,4.2,52.2,1007.6,276.4,2.2,5.6,265.6,0.04,-4.7,5.9,"15:56:26",1
"18/02/12","16:10",0.0,3.9,54.1,1008.1,262.6,3.7,5.9,287.3,0.04,-4.5,6.2,"16:01:26",1
"18/02/12","16:20",0.0,3.4,60.9,1008.1,268.4,3.5,6.0,329.1,0.04,-3.4,5.8,"16:16:46",1
"18/02/12","16:30",0.0,3.7,62.3,1007.8,317.3,3.9,7.8,328.8,0.10,-2.8,5.7,"16:24:34",1
"18/02/12","16:40",0.0,3.6,63.2,1007.6,314.8,3.6,5.7,320.7,0.06,-2.7,5.8,"16:36:38",1
"18/02/12","16:50",0.0,3.6,60.9,1008.1,292.0,2.6,4.7,306.5,0.04,-3.2,5.6,"16:49:50",1
"18/02/12","17:00",0.0,3.4,59.0,1007.8,255.3,2.5,3.5,308.2,0.02,-3.8,5.6,"16:59:34",1
"18/02/12","17:10",0.0,3.3,58.9,1008.1,285.8,2.2,4.2,317.0,0.01,-3.9,5.4,"17:09:14",1
"18/02/12","17:20",0.0,2.9,59.0,1008.3,297.7,2.2,3.7,307.5,0.00,-4.3,5.4,"17:16:12",1
"18/02/12","17:30",0.0,2.7,59.9,1008.3,282.3,1.8,4.1,313.7,0.00,-4.3,5.2,"17:25:52",1
"18/02/12","17:40",0.0,2.5,60.7,1008.3,303.4,2.0,3.4,314.1,0.00,-4.3,5.1,"17:39:16",1
"18/02/12","17:50",0.0,2.4,60.6,1008.3,268.6,1.8,2.7,318.2,0.00,-4.4,5.2,"17:40:08",1
"18/02/12","18:00",0.0,2.4,58.9,1008.3,275.3,2.5,4.7,315.7,0.00,-4.8,4.9,"17:59:04",1
"18/02/12","18:10",0.0,2.3,58.8,1008.6,274.9,2.6,4.7,238.1,0.00,-4.9,5.0,"18:05:44",1
"18/02/12","18:20",0.0,1.8,61.6,1008.6,301.2,2.1,2.9,321.7,0.00,-4.7,4.9,"18:10:02",1
"18/02/12","18:30",0.0,1.5,63.8,1008.8,309.7,2.3,3.7,323.8,0.00,-4.6,4.7,"18:27:36",1
"18/02/12","18:40",0.0,1.3,64.9,1008.6,301.3,2.0,3.4,327.9,0.00,-4.5,4.5,"18:35:44",1
"18/02/12","18:50",0.0,1.2,64.8,1008.8,288.2,1.8,2.7,291.3,0.00,-4.6,4.7,"18:48:48",1
"18/02/12","19:00",0.0,1.1,64.7,1009.0,290.5,1.8,2.8,320.9,0.00,-4.8,4.6,"18:53:04",1
"18/02/12","19:10",0.0,1.2,64.8,1009.0,277.3,1.8,2.7,317.0,0.00,-4.6,4.5,"19:04:32",1
"18/02/12","19:20",0.0,0.7,65.8,1008.8,312.4,1.3,3.3,325.7,0.00,-4.9,4.4,"19:12:08",1
"18/02/12","19:30",0.0,-0.1,71.5,1008.6,322.8,1.7,2.6,327.0,0.00,-4.6,4.3,"19:22:08",1
"18/02/12","19:40",0.0,-0.6,74.2,1008.6,323.1,1.2,1.9,334.6,0.00,-4.6,4.4,"19:35:52",1
"18/02/12","19:50",0.0,-0.9,76.3,1008.6,327.1,1.0,1.7,340.0,0.00,-4.5,4.2,"19:40:32",1
"18/02/12","20:00",0.0,-1.0,77.6,1008.8,330.3,1.2,1.9,333.2,0.00,-4.4,3.9,"19:52:48",1
"18/02/12","20:10",0.0,-1.1,78.3,1008.6,330.6,1.1,2.0,345.3,0.00,-4.4,3.8,"20:02:56",1
"18/02/12","20:20",0.0,-1.7,79.6,1008.6,312.3,1.5,1.7,322.8,0.00,-4.7,3.6,"20:11:28",1
"18/02/12","20:30",0.0,-1.7,81.9,1008.8,315.9,1.5,2.4,334.3,0.00,-4.3,3.6,"20:27:28",1
"18/02/12","20:40",0.0,-1.9,82.5,1008.6,323.4,2.0,2.5,322.1,0.00,-4.4,3.5,"20:38:56",1
"18/02/12","20:50",0.0,-2.2,84.2,1008.1,314.1,1.8,2.2,310.7,0.00,-4.5,3.7,"20:46:24",1
"18/02/12","21:00",0.0,-2.5,86.1,1008.1,288.2,1.1,2.1,316.1,0.00,-4.5,3.5,"20:50:24",1
"18/02/12","21:10",0.0,-2.5,87.3,1008.8,301.8,1.6,2.2,315.7,0.00,-4.3,3.4,"21:05:44",1
"18/02/12","21:20",0.0,-2.6,88.5,1008.6,290.8,1.6,1.9,309.5,0.00,-4.2,3.5,"21:13:28",1
"18/02/12","21:30",0.0,-2.5,88.0,1008.6,310.5,1.8,2.8,316.7,0.00,-4.2,3.3,"21:24:48",1
"18/02/12","21:40",0.0,-2.6,88.8,1008.3,295.8,1.6,2.4,322.6,0.00,-4.1,3.4,"21:39:28",1
"18/02/12","21:50",0.0,-2.9,88.1,1008.3,292.7,1.7,2.4,314.3,0.00,-4.6,3.3,"21:41:44",1
"18/02/12","22:00",0.0,-2.9,89.7,1008.3,304.2,2.1,2.9,316.5,0.00,-4.3,3.2,"21:55:28",1
"18/02/12","22:10",0.0,-2.8,89.5,1008.1,302.0,1.8,2.5,317.9,0.00,-4.2,3.1,"22:05:00",1
"18/02/12","22:20",0.0,-3.0,90.0,1008.3,295.2,1.3,2.8,308.7,0.00,-4.4,3.2,"22:10:02",1
"18/02/12","22:30",0.0,-3.3,90.7,1008.6,292.4,1.8,2.4,303.4,0.00,-4.6,3.1,"22:20:08",1
"18/02/12","22:40",0.0,-3.4,91.1,1008.1,300.4,2.1,2.5,315.5,0.00,-4.6,2.9,"22:37:44",1
"18/02/12","22:50",0.0,-3.1,91.8,1008.3,307.7,2.2,2.8,308.9,0.00,-4.2,2.9,"22:41:04",1
"18/02/12","23:00",0.0,-3.4,90.9,1008.1,278.6,1.6,2.1,315.3,0.00,-4.6,3.1,"22:50:24",1
"18/02/12","23:10",0.0,-3.1,92.2,1007.8,298.6,1.8,2.5,325.2,0.00,-4.1,2.8,"23:04:06",1
"18/02/12","23:20",0.0,-3.4,90.6,1008.3,307.7,2.5,3.5,322.4,0.00,-4.7,3.0,"23:16:32",1
"18/02/12","23:30",0.0,-3.4,91.8,1008.1,312.9,2.5,3.4,321.0,0.00,-4.5,2.8,"23:24:56",1
"18/02/12","23:40",0.0,-3.6,91.7,1008.1,275.3,1.0,1.7,263.6,0.00,-4.7,2.7,"23:31:04",1
"18/02/12","23:50",0.0,-3.5,91.9,1007.8,295.4,2.1,2.7,312.3,0.00,-4.6,2.7,"23:44:24",1
"18/02/12","24:00",0.0,-3.6,91.7,1007.8,288.9,1.6,2.1,306.7,0.00,-4.7,2.7,"23:50:08",1
